GFSGL_prec_cloud_276.txt.gz
Cloud_Cover
100 100 100 100 100 100 100 100 100 100 100 100 100 100 100 100 100 100 100 100 100 100 100 100 100 100 100 100 100 100 100 100 100 100 100 100 100 100 100 100 100 100 100
100 100 100 100 100 100 100 100 100 100 100 100 100 100 100 100 100 100 100 100 100 100 100 100 100 100 100 100 100 100 100 100 100 100 100 100 100 100 100 100 100 100 100
100 100 100 100 100 100 100 100 100 100 100 100 100 100 100 100 100 100 100 100 100 100 100 100 100 100 100 100 100 100 100 100 100 100 100 100 100 100 100 100 100 100 100
96 100 100 100 100 100 100 100 100 100 100 100 100 100 100 100 100 100 100 100 100 100 100 100 100 100 100 100 100 100 100 100 100 100 100 100 100 100 100 100 100 100 100
4 100 100 100 100 100 100 100 100 100 100 100 100 100 100 100 100 100 100 100 100 100 100 100 100 100 100 100 100 100 100 100 100 100 100 100 100 100 100 100 100 100 100
4 5 11 99 100 100 100 100 100 100 100 100 100 100 100 100 100 100 100 100 100 100 100 100 100 100 100 100 100 100 100 100 100 100 100 100 100 100 100 100 100 100 96
9 1 7 13 75 98 97 100 100 100 100 100 100 100 100 100 100 100 100 100 100 100 100 100 100 100 100 100 100 100 100 100 100 100 100 100 28 5 7 81 95 100 96
0 0 0 0 42 72 85 64 100 100 100 100 100 100 100 100 100 100 100 100 100 100 100 100 100 100 100 100 100 96 18 5 46 100 100 100 44 36 88 100 79 100 100
1 0 4 0 1 1 5 5 6 8 58 100 90 100 100 100 100 100 98 91 40 12 5 1 5 4 5 5 5 5 33 36 18 5 5 5 5 75 48 96 99 47 84
0 0 3 4 2 0 0 4 5 5 1 25 50 57 82 32 15 5 26 25 5 5 5 5 5 5 5 5 5 5 10 30 5 5 5 5 29 5 5 5 8 99 73
33 4 5 4 50 4 5 22 4 5 5 9 6 5 5 5 5 5 5 4 5 5 10 30 9 5 5 5 5 5 5 5 5 6 7 5 5 7 8 6 5 12 68
76 80 5 5 6 5 8 13 12 9 6 28 16 24 23 6 5 5 5 5 5 12 20 24 5 5 5 5 8 5 5 9 13 66 71 74 83 93 91 84 50 46 45
100 100 100 100 24 10 13 26 18 24 26 38 20 12 18 25 14 5 5 5 5 29 18 8 5 25 5 13 57 99 91 26 78 84 82 69 74 76 83 72 79 87 92
100 100 100 100 100 100 45 45 25 40 79 25 19 18 15 25 41 25 11 10 5 6 9 6 6 75 100 26 95 100 100 100 100 100 100 100 93 84 91 78 100 100 100
100 100 100 100 100 100 100 100 43 60 6 12 5 83 100 100 60 7 8 13 23 7 18 31 18 87 100 100 100 100 100 100 100 100 100 100 100 100 91 82 97 100 100
48 100 100 100 100 100 100 100 100 93 100 38 87 100 100 100 100 100 98 77 22 16 18 43 58 75 98 100 100 100 100 100 100 100 100 100 100 100 100 100 100 100 100
100 100 100 100 100 100 100 100 100 100 100 100 75 99 97 100 100 100 100 100 100 99 90 72 62 75 89 100 100 100 100 100 100 100 100 100 100 100 100 100 96 98 100
100 100 95 99 100 100 100 100 100 100 100 58 97 100 28 81 90 98 100 100 100 100 100 90 94 58 79 70 100 100 100 100 100 100 100 100 100 100 100 100 100 100 100
55 24 86 100 100 100 100 100 100 100 100 100 100 36 19 100 100 63 71 100 100 100 100 100 90 76 77 100 100 100 100 100 100 100 100 100 100 100 100 100 100 100 99
98 76 15 62 96 100 100 100 95 100 100 100 100 83 73 100 100 100 100 100 100 100 100 98 68 56 57 75 97 84 98 100 100 100 100 100 100 100 100 100 100 100 100
100 100 100 100 100 100 100 100 100 99 100 100 100 100 55 100 100 100 100 100 100 100 86 84 96 100 100 100 100 100 78 99 100 99 100 100 100 100 100 100 100 100 100
100 100 100 100 100 100 100 100 100 100 100 100 100 100 100 100 100 100 100 100 100 100 100 100 100 99 100 100 100 100 100 96 95 100 100 98 92 100 100 100 100 100 100
100 100 100 100 100 100 100 100 100 100 100 100 100 100 100 100 100 100 100 100 100 100 100 99 63 100 100 100 100 100 98 100 84 99 100 98 54 93 100 100 100 100 100
100 100 100 100 100 100 100 100 100 100 100 100 100 100 100 100 100 100 100 100 100 100 100 100 100 100 100 100 100 100 100 100 47 45 76 86 100 96 60 94 100 100 100
100 100 100 100 100 100 100 100 100 100 100 100 100 100 100 100 100 100 100 100 100 100 100 100 100 100 100 100 100 100 100 100 79 83 60 90 100 100 88 98 85 100 100
100 100 100 100 100 100 100 100 100 100 100 100 100 100 100 100 100 100 100 100 100 100 100 100 100 100 100 100 100 100 100 100 100 100 100 100 100 100 100 100 100 100 100

GFSGL_prec_cloud_279.txt.gz
Cloud_Cover
100 100 100 100 100 100 82 72 47 98 100 100 100 100 100 100 100 100 100 100 100 100 100 100 100 100 100 100 100 100 100 100 100 100 100 100 100 100 100 100 100 100 100
100 100 100 100 100 100 100 100 100 100 100 100 100 100 100 100 100 100 100 100 100 100 100 100 100 100 95 86 100 100 100 100 100 100 100 100 100 100 100 100 100 100 100
100 100 100 78 94 100 100 100 100 100 100 100 100 100 100 100 100 100 100 100 100 100 100 100 100 100 100 100 100 100 100 100 100 100 100 100 100 100 100 100 100 100 100
100 100 100 100 100 100 100 100 100 100 100 100 100 100 100 100 100 100 100 100 100 100 100 100 100 100 100 100 100 100 100 100 100 100 100 100 100 100 100 100 100 100 100
7 46 100 100 100 100 100 100 100 100 100 100 100 100 100 100 100 100 100 100 100 100 100 100 100 100 100 100 100 100 100 100 100 100 100 100 100 100 100 100 100 86 80
5 1 66 100 99 100 100 100 100 100 100 100 100 100 100 100 100 100 100 100 100 100 100 100 100 100 100 100 100 100 100 100 100 100 100 100 99 100 100 79 34 53 71
13 5 6 84 100 100 100 100 100 100 100 100 100 100 100 100 100 100 100 100 100 100 100 100 100 100 100 100 100 100 100 100 100 75 5 100 96 99 61 36 28 94 23
0 2 4 5 91 100 100 100 100 100 99 100 100 100 100 100 100 100 100 100 100 100 100 100 100 100 100 100 100 99 18 5 5 5 5 5 3 5 4 5 5 25 39
0 0 4 1 5 7 29 46 51 100 100 96 81 86 73 93 98 71 63 19 3 5 1 5 5 4 4 5 5 5 26 34 6 5 5 5 5 5 5 5 25 5 28
5 5 3 10 10 5 5 6 67 7 5 24 3 45 98 100 93 5 5 18 5 5 5 5 5 4 4 4 5 5 24 43 6 14 30 15 5 5 5 5 5 6 80
6 9 5 5 36 14 33 45 43 22 11 23 20 5 6 5 5 5 5 5 5 5 12 29 14 5 5 5 5 5 5 5 5 5 5 13 10 24 16 7 5 5 66
52 80 100 92 78 5 6 22 31 53 100 60 19 24 24 13 5 5 5 5 5 5 8 17 5 5 5 5 7 5 5 12 5 55 75 94 96 99 100 92 69 71 70
3 6 87 100 100 100 100 94 42 32 28 23 44 98 42 25 18 5 5 5 11 17 14 6 5 5 5 5 8 13 36 64 78 88 92 100 100 100 100 100 100 100 100
47 14 5 5 66 100 100 100 100 100 100 50 72 52 65 96 96 34 16 6 6 24 29 10 7 26 23 14 76 94 23 74 76 88 100 100 100 100 100 100 100 100 100
100 100 100 5 6 72 100 100 100 100 98 98 41 41 46 20 23 13 21 18 27 21 83 69 100 66 72 47 97 96 19 30 38 92 100 99 100 96 100 100 100 100 100
100 100 100 20 32 45 100 100 100 100 100 100 100 80 85 45 55 94 100 100 26 39 72 99 100 83 95 100 100 100 100 100 100 100 100 97 94 62 98 100 100 100 100
100 100 100 100 96 87 95 99 100 100 100 100 100 100 100 100 96 81 100 100 99 92 85 100 84 36 99 100 100 100 92 85 100 100 100 100 100 100 96 100 100 100 100
100 100 100 100 100 94 89 99 74 38 100 100 99 100 88 100 100 100 96 100 100 100 100 100 64 46 82 100 100 100 100 76 100 100 100 100 100 100 100 98 76 94 99
100 100 100 100 100 100 100 100 100 100 100 100 36 47 33 64 100 100 100 100 100 100 71 93 100 100 99 98 100 100 99 70 98 100 100 100 100 100 100 99 100 100 98
100 100 100 100 100 98 100 100 100 97 100 100 90 17 77 29 100 100 100 100 100 100 100 100 98 100 95 90 94 79 99 90 100 100 100 100 100 100 100 100 100 100 99
100 100 100 100 100 100 100 100 100 100 100 100 100 97 77 100 100 100 100 100 100 100 100 100 100 100 100 92 99 100 100 100 100 100 100 100 100 100 100 100 100 100 100
100 100 100 100 100 100 100 100 100 100 100 100 100 100 98 100 100 100 100 100 100 100 100 100 100 100 100 100 100 100 100 100 100 100 100 100 100 100 100 100 100 100 100
100 100 100 100 100 100 100 100 100 100 100 100 100 100 100 100 100 100 100 100 100 100 100 100 100 100 100 100 100 100 100 100 100 100 100 100 100 100 100 100 100 100 100
100 100 100 100 100 100 100 100 100 100 100 100 100 100 100 100 100 100 100 100 100 100 100 100 100 100 100 100 100 100 100 100 100 100 100 100 100 100 100 100 100 100 100
100 100 100 100 100 100 100 100 100 100 100 100 100 100 100 100 100 100 100 100 100 100 100 100 100 100 100 100 100 100 100 100 100 100 100 100 100 100 100 100 100 100 100
100 100 100 100 100 100 100 100 100 100 100 100 100 100 100 100 100 100 100 100 100 100 100 100 100 100 100 100 100 100 100 100 100 100 100 100 100 100 100 100 100 100 100

GFSGL_prec_cloud_285.txt.gz
Cloud_Cover
96 100 100 100 97 75 86 100 100 100 100 100 100 100 100 100 100 100 100 100 100 100 100 100 100 100 100 94 100 100 100 100 100 100 100 100 100 100 100 100 100 100 100
71 100 100 100 99 100 97 99 100 100 100 100 100 100 100 100 100 100 100 100 100 100 100 100 100 100 100 100 100 100 100 100 100 100 100 100 100 100 100 100 100 100 100
61 100 100 100 100 100 100 97 87 100 100 100 100 100 100 100 100 100 100 100 100 100 100 100 100 100 100 100 100 100 100 100 100 100 100 100 100 100 100 100 100 100 100
99 96 100 100 100 100 100 100 100 100 100 100 100 100 100 100 100 100 100 100 100 100 100 100 100 100 100 100 100 100 100 100 100 100 100 100 100 100 100 100 100 48 77
7 88 100 100 100 100 100 100 100 100 100 100 100 100 100 100 100 100 100 100 100 100 100 100 100 100 100 100 100 100 100 100 100 100 100 100 100 94 49 24 38 95 99
0 50 74 100 100 100 100 100 100 100 100 100 100 100 100 100 100 100 100 100 100 100 100 100 100 100 100 100 100 100 100 100 100 100 100 100 100 52 11 12 99 94 90
96 0 73 85 100 100 100 100 100 100 100 100 100 100 100 100 100 100 100 100 100 100 100 100 100 100 100 100 100 100 100 80 81 77 94 14 6 5 5 99 28 48 94
0 0 1 33 57 100 100 97 100 100 100 100 100 100 100 100 100 100 100 100 100 100 100 100 100 100 100 88 45 13 5 5 2 5 0 4 2 2 3 5 63 29 40
0 0 0 0 1 4 87 100 100 99 89 90 90 100 100 100 100 100 100 100 100 100 82 25 13 5 1 2 5 5 8 6 5 2 0 0 0 0 5 13 62 65 60
0 1 1 0 0 2 4 2 8 5 41 100 100 100 100 100 100 100 99 80 5 4 5 5 3 4 5 5 4 5 15 76 27 13 11 13 5 5 5 5 5 5 89
5 2 0 5 2 16 5 4 5 5 6 17 9 66 100 100 95 74 29 6 24 16 18 12 71 11 30 34 17 5 5 14 22 38 67 55 26 37 32 15 5 98 68
5 5 7 4 5 6 8 20 12 32 13 23 63 88 48 100 100 100 100 100 100 100 100 85 68 78 80 52 85 8 18 30 55 70 72 73 72 74 80 81 69 70 66
5 5 5 15 13 23 96 100 22 13 29 31 84 95 13 100 100 99 93 100 100 100 100 92 100 24 63 100 69 82 72 92 99 41 64 63 66 84 100 100 100 97 99
5 5 19 11 92 76 12 52 21 62 38 12 33 27 5 57 55 97 94 81 70 78 99 100 97 100 73 60 36 76 77 100 85 100 99 93 97 100 100 100 100 100 100
27 7 46 100 93 100 99 85 26 5 7 5 5 12 80 74 86 90 92 58 58 62 90 100 97 97 100 97 94 97 100 100 100 100 100 100 100 99 100 100 100 100 100
96 96 92 64 55 100 100 100 96 100 94 36 16 18 71 54 84 63 51 100 100 100 84 95 98 100 92 97 100 100 98 100 100 100 100 100 100 100 100 100 100 100 100
100 100 100 88 65 98 100 100 100 100 100 96 77 98 23 59 45 97 94 97 100 100 100 100 100 100 100 100 100 100 100 100 100 100 100 100 100 100 100 100 100 100 100
100 100 100 100 94 99 70 83 93 100 100 100 100 100 100 100 100 90 91 100 100 100 100 100 100 100 96 74 100 100 100 100 100 100 100 100 100 100 100 100 100 100 100
100 100 100 100 100 100 100 100 100 100 100 100 100 100 99 87 99 100 100 100 100 100 97 100 100 100 99 100 100 100 100 100 100 100 100 100 100 100 100 100 100 100 100
100 100 100 100 100 100 100 100 100 100 100 100 100 95 100 100 100 100 98 100 100 100 100 100 100 100 100 100 100 100 100 100 100 100 100 100 100 100 100 100 100 100 100
100 100 100 100 100 100 100 100 100 100 100 100 100 100 100 100 100 100 100 100 100 100 100 100 100 100 100 100 100 100 100 100 100 100 100 100 100 100 100 100 100 100 100
100 100 100 100 100 100 100 100 100 100 100 100 100 100 100 100 100 100 100 100 100 100 100 100 100 100 100 100 100 100 100 100 100 100 100 100 100 100 100 100 100 100 100
100 100 100 100 100 100 100 100 100 100 100 100 100 100 100 100 100 100 100 100 100 100 100 100 100 100 100 100 100 100 100 100 100 100 100 100 100 100 100 100 100 100 100
100 100 100 100 100 100 100 100 100 100 100 100 100 100 100 100 100 100 100 98 84 89 100 100 100 100 100 100 100 100 100 100 100 100 100 100 100 100 100 100 100 100 100
100 100 100 100 100 100 100 100 100 100 100 100 100 100 100 100 100 100 100 100 100 100 100 100 100 100 99 97 100 98 100 100 100 100 100 100 100 100 100 100 100 100 100
100 100 100 100 100 100 100 100 100 100 100 100 100 100 100 100 100 100 98 100 100 100 100 100 100 100 100 100 100 100 100 100 100 100 100 100 100 100 100 100 100 100 100

GFSGL_prec_cloud_291.txt.gz
Cloud_Cover
100 100 30 74 59 79 100 100 100 100 100 100 100 99 100 100 100 100 100 100 100 100 100 100 100 99 76 94 100 100 100 99 100 100 100 100 100 100 100 98 60 100 100
100 77 49 97 100 99 97 100 100 100 100 100 100 100 100 100 100 100 100 100 100 100 100 100 100 100 100 100 100 100 100 100 100 98 100 100 100 100 100 84 95 100 100
100 94 100 100 100 94 60 98 100 100 100 100 100 100 100 100 100 100 100 100 100 100 100 100 100 100 100 100 100 100 100 100 100 100 100 100 100 100 100 100 80 36 42
86 98 100 100 100 92 96 81 98 100 100 100 100 100 100 100 100 100 100 100 100 100 100 100 100 100 100 100 100 100 100 100 100 100 100 100 100 100 76 86 87 77 98
9 96 100 100 100 100 94 100 97 100 100 100 100 100 100 100 100 100 100 100 100 100 100 100 100 100 100 100 100 100 100 100 100 100 100 100 100 75 36 59 100 85 41
1 30 100 100 100 100 100 100 100 100 100 100 100 100 100 100 100 100 100 100 100 100 100 100 100 100 100 100 100 100 100 100 100 100 100 100 100 100 100 100 100 25 32
15 7 77 100 100 100 100 100 100 100 100 100 100 100 100 100 100 100 100 100 100 100 100 100 100 100 100 100 100 100 100 100 100 100 100 100 100 100 100 96 88 5 5
4 0 17 100 100 100 100 100 100 100 100 100 100 100 100 100 100 100 100 100 100 100 100 100 100 100 100 100 92 100 100 85 86 95 100 100 100 100 100 64 15 33 52
15 5 5 9 90 100 100 100 100 100 100 100 99 100 100 100 100 100 100 100 100 100 100 100 100 100 100 100 100 39 4 5 3 0 2 17 11 8 5 5 21 9 86
83 38 25 5 5 7 76 99 100 100 100 100 100 98 88 95 100 100 100 100 100 100 100 100 100 70 1 3 3 5 52 26 6 17 72 91 27 5 5 5 5 5 11
15 24 31 73 5 5 5 11 36 80 98 100 92 39 90 39 36 28 16 1 12 5 5 5 1 5 9 35 8 3 16 9 39 6 22 10 13 24 36 5 5 10 5
100 63 12 32 100 95 33 15 15 71 67 51 51 92 100 100 86 52 12 5 4 4 5 25 60 64 86 41 50 36 44 98 66 50 73 94 100 100 89 55 22 29 13
100 100 98 85 55 100 100 100 95 39 84 98 100 97 96 99 100 100 100 100 100 100 88 94 100 100 100 100 100 98 70 67 69 67 96 89 42 89 84 90 74 65 92
100 100 100 100 100 100 100 100 100 100 100 100 100 100 91 100 97 75 95 95 100 98 100 100 100 100 100 100 100 100 92 100 96 97 100 100 100 100 100 100 100 99 99
100 100 100 99 99 84 89 97 100 100 100 100 100 100 99 83 99 100 100 100 93 100 100 100 100 100 100 100 100 100 100 100 100 100 100 100 100 100 100 100 100 100 100
100 100 100 98 83 90 57 95 100 98 100 100 100 100 100 100 100 78 81 100 100 100 100 88 89 100 100 100 100 100 100 100 100 100 100 100 100 100 100 100 100 100 100
100 100 100 100 100 100 100 100 100 100 84 100 100 100 100 100 100 100 100 100 100 100 100 100 100 100 100 100 100 100 100 100 100 100 100 100 100 100 100 100 100 100 100
100 100 100 100 100 100 100 100 99 96 99 100 100 100 100 100 100 100 100 100 100 100 100 100 100 100 100 100 100 100 100 100 100 100 100 100 100 100 100 100 100 100 100
100 100 100 100 100 100 100 100 100 100 100 100 100 100 100 100 100 100 100 100 100 100 100 100 100 100 100 100 100 100 100 100 100 100 100 100 100 100 100 100 100 100 100
100 100 100 100 100 100 100 100 100 100 100 100 100 100 100 100 100 100 100 100 100 100 100 100 100 100 100 100 100 100 100 100 100 100 100 100 100 100 100 100 100 100 100
100 100 100 100 100 100 100 100 100 100 100 100 100 100 100 100 100 100 100 100 100 100 100 100 100 100 100 100 100 100 100 100 100 100 100 100 100 100 100 100 100 100 100
100 100 100 100 100 100 100 100 100 100 100 100 100 100 100 100 100 100 100 100 100 100 100 100 100 100 100 100 100 100 100 100 100 100 100 100 100 100 100 100 100 100 100
100 100 100 100 97 100 100 100 100 100 100 100 100 100 100 100 100 100 100 100 100 100 100 100 100 100 100 100 100 100 100 100 100 100 100 100 100 100 100 100 100 100 100
100 100 100 100 100 100 100 100 100 100 100 100 100 100 100 100 100 100 100 100 100 100 100 100 100 100 100 100 100 100 100 100 100 100 100 100 100 100 100 100 99 100 100
100 100 100 100 100 100 100 100 100 100 100 100 100 100 100 100 100 100 100 100 100 100 100 100 100 100 100 100 100 100 100 100 100 100 100 100 100 100 100 100 100 100 100
100 100 100 100 100 100 100 100 100 100 100 100 100 100 100 100 100 100 100 100 100 100 100 100 100 100 100 100 100 100 100 100 73 98 99 98 100 97 99 100 100 100 100